Clemson, SC

2:09 PM EDT on June 25, 2017 (GMT -0400)
Oconee County Regional

Weather History for KCEU - December, 2012

Change the Weather History Date:

Sunday, December 9, 2012

  Actual Average Record
Temperature  
Mean Temperature 62 °F -  
Max Temperature 69 °F 57 °F 77 °F (1943)
Min Temperature 55 °F 35 °F 19 °F (1976)
Degree Days  
Heating Degree Days 3    
Growing Degree Days 12 (Base 50)    
Moisture  
Dew Point 55 °F    
Average Humidity 85    
Maximum Humidity 94    
Minimum Humidity 65    
Precipitation  
Precipitation 0.01 in - - ()
Sea Level Pressure  
Sea Level Pressure 30.07 in    
Wind  
Wind Speed 1 mph (WNW)    
Max Wind Speed 8 mph    
Max Gust Speed -    
Visibility 4 miles    
Events Fog    
Averages and records for this station are not official NWS values.
T = Trace of Precipitation, MM = Missing Value Source: NWS Daily Summary

Daily Weather History Graph

Daily Weather History Graph

Search for Another Location

Airport or City:

Trip Planner

Search our weather history database for the weather conditions in past years. The results will help you decide how hot, cold, wet, or windy it might be!

Date:

Astronomy

Dec. 09, 2012 Rise Set
Actual Time 7:27 AM EST 5:20 PM EST
Civil Twilight 6:59 AM EST 5:48 PM EST
Nautical Twilight 6:28 AM EST 6:20 PM EST
Astronomical Twilight 5:57 AM EST 6:50 PM EST
Moon 3:06 AM EST (12/9) 2:20 PM EST (12/9)
Length of Visible Light 10h 49m
Length of Day
9h 53m
Waning Crescent, 19% of the Moon is Illuminated
Dec 9
Waning Crescent
Dec 13
New
Dec 20
First Quarter
Dec 28
Full
Jan 4
Last Quarter

Hourly Weather History & Observations

Time (EST) Temp. Dew Point Humidity Pressure Visibility Wind Dir Wind Speed Gust Speed Precip Events Conditions
12:07 AM 57.2 °F 55.4 °F 94% 30.08 in 2.0 mi Calm Calm - N/A   Overcast
12:20 AM 57.2 °F 53.6 °F 88% 30.08 in 0.8 mi NNW 3.5 mph - N/A   Overcast
12:30 AM 57.2 °F 53.6 °F 88% 30.08 in 0.2 mi NNW 3.5 mph - N/A Fog Fog
12:51 AM 57.2 °F 55.4 °F 94% 30.08 in 1.0 mi Calm Calm - N/A   Overcast
12:54 AM 57.9 °F 55.0 °F 90% 30.07 in 1.0 mi Calm Calm - N/A   Overcast
1:18 AM 57.2 °F 55.4 °F 94% 30.08 in 2.0 mi Calm Calm - 0.00 in   Overcast
1:54 AM 59.0 °F 55.0 °F 87% 30.06 in 2.5 mi Calm Calm - 0.00 in   Overcast
2:02 AM 59.0 °F 55.4 °F 88% 30.08 in 3.0 mi Calm Calm - N/A   Mostly Cloudy
2:07 AM 57.2 °F 55.4 °F 94% 30.07 in 1.8 mi Calm Calm - N/A   Mostly Cloudy
2:31 AM 57.2 °F 53.6 °F 88% 30.07 in 0.5 mi Calm Calm - N/A Fog Fog
2:45 AM 57.2 °F 53.6 °F 88% 30.07 in 0.2 mi Calm Calm - N/A Fog Fog
2:54 AM 57.0 °F 54.0 °F 89% 30.06 in 0.2 mi Calm Calm - N/A Fog Fog
3:17 AM 57.2 °F 53.6 °F 88% 30.07 in 0.2 mi Calm Calm - N/A Fog Fog
3:54 AM 57.0 °F 54.0 °F 89% 30.06 in 0.2 mi Calm Calm - 0.01 in Fog Fog
4:01 AM 57.2 °F 53.6 °F 88% 30.07 in 0.5 mi Calm Calm - N/A Fog Fog
4:11 AM 57.2 °F 53.6 °F 88% 30.07 in 0.8 mi SSE 3.5 mph - N/A   Overcast
4:54 AM 55.9 °F 54.0 °F 93% 30.06 in 0.5 mi Calm Calm - N/A Fog Fog
5:03 AM 57.2 °F 53.6 °F 88% 30.07 in 0.2 mi Calm Calm - N/A Fog Fog
5:14 AM 55.4 °F 53.6 °F 94% 30.07 in 0.2 mi Calm Calm - N/A Fog Fog
5:22 AM 57.2 °F 53.6 °F 88% 30.07 in 0.2 mi Calm Calm - N/A Fog Fog
5:29 AM 57.2 °F 53.6 °F 88% 30.07 in 1.0 mi Calm Calm - N/A   Overcast
5:40 AM 57.2 °F 53.6 °F 88% 30.08 in 2.5 mi Calm Calm - N/A   Overcast
5:48 AM 55.4 °F 53.6 °F 94% 30.08 in 0.8 mi Calm Calm - N/A   Overcast
5:59 AM 55.4 °F 53.6 °F 94% 30.08 in 0.5 mi Calm Calm - N/A Fog Fog
6:34 AM 57.2 °F 53.6 °F 88% 30.09 in 0.5 mi Calm Calm - N/A Fog Fog
6:46 AM 55.4 °F 53.6 °F 94% 30.10 in 1.0 mi Calm Calm - N/A   Overcast
7:17 AM 55.4 °F 53.6 °F 94% 30.10 in 0.5 mi Calm Calm - N/A Fog Fog
7:34 AM 55.4 °F 53.6 °F 94% 30.10 in 0.2 mi Calm Calm - N/A Fog Fog
7:42 AM 55.4 °F 53.6 °F 94% 30.10 in 0.5 mi Calm Calm - N/A Fog Fog
7:52 AM 57.2 °F 53.6 °F 88% 30.10 in 1.2 mi Calm Calm - N/A   Mostly Cloudy
7:54 AM 57.0 °F 54.0 °F 89% 30.09 in 1.5 mi Calm Calm - N/A   Overcast
8:54 AM 57.9 °F 55.0 °F 90% 30.10 in 1.5 mi NNW 3.5 mph - N/A   Overcast
9:06 AM 57.2 °F 55.4 °F 94% 30.11 in 1.8 mi Calm Calm - N/A   Overcast
9:16 AM 57.2 °F 55.4 °F 94% 30.11 in 2.0 mi Calm Calm - N/A   Overcast
9:25 AM 59.0 °F 55.4 °F 88% 30.12 in 2.0 mi NNW 3.5 mph - N/A   Overcast
9:44 AM 59.0 °F 55.4 °F 88% 30.12 in 3.0 mi ESE 3.5 mph - N/A   Overcast
9:54 AM 59.0 °F 55.9 °F 90% 30.12 in 3.0 mi Calm Calm - N/A   Overcast
10:54 AM 62.1 °F 57.0 °F 84% 30.11 in 5.0 mi Calm Calm - N/A   Haze
11:02 AM 62.6 °F 57.2 °F 82% 30.12 in 5.0 mi West 4.6 mph - N/A   Haze
11:25 AM 62.6 °F 57.2 °F 82% 30.11 in 5.0 mi West 3.5 mph - N/A   Haze
11:54 AM 63.0 °F 57.0 °F 81% 30.09 in 5.0 mi Calm Calm - N/A   Haze
12:05 PM 64.4 °F 57.2 °F 77% 30.10 in 5.0 mi Calm Calm - N/A   Haze
12:54 PM 64.0 °F 57.0 °F 78% 30.07 in 6.0 mi West 3.5 mph - N/A   Haze
1:34 PM 66.2 °F 57.2 °F 73% 30.07 in 9.0 mi Variable 6.9 mph - N/A   Overcast
1:45 PM 66.2 °F 57.2 °F 73% 30.06 in 10.0 mi West 8.1 mph - N/A   Unknown
1:54 PM 66.0 °F 57.0 °F 73% 30.04 in 9.0 mi WNW 3.5 mph - N/A   Unknown
2:54 PM 69.1 °F 57.0 °F 65% 30.03 in 10.0 mi SW 3.5 mph - N/A   Unknown
3:54 PM 66.9 °F 57.0 °F 70% 30.04 in 10.0 mi NE 4.6 mph - N/A   Mostly Cloudy
4:47 PM 66.2 °F 55.4 °F 68% 30.05 in 10.0 mi NNE 3.5 mph - N/A   Mostly Cloudy
4:54 PM 66.0 °F 55.9 °F 70% 30.04 in 10.0 mi Calm Calm - N/A   Scattered Clouds
5:40 PM 64.4 °F 55.4 °F 73% 30.05 in 10.0 mi Calm Calm - N/A   Mostly Cloudy
5:52 PM 64.4 °F 55.4 °F 73% 30.05 in 10.0 mi Calm Calm - N/A   Overcast
5:54 PM 64.0 °F 55.9 °F 75% 30.04 in 10.0 mi Calm Calm - N/A   Overcast
6:54 PM 63.0 °F 55.9 °F 78% 30.04 in 10.0 mi Calm Calm - N/A   Overcast
7:54 PM 64.0 °F 55.9 °F 75% 30.03 in 10.0 mi Calm Calm - N/A   Overcast
8:54 PM 62.1 °F 57.0 °F 84% 30.01 in 9.0 mi South 3.5 mph - N/A   Partly Cloudy
9:54 PM 61.0 °F 57.0 °F 87% 30.00 in 6.0 mi Calm Calm - N/A   Clear
10:54 PM 61.0 °F 57.0 °F 87% 30.01 in 5.0 mi Calm Calm - N/A   Mostly Cloudy
11:52 PM 60.8 °F 57.2 °F 88% 30.00 in 5.0 mi Calm Calm - N/A   Overcast
11:54 PM 60.1 °F 55.9 °F 86% 29.99 in 5.0 mi Calm Calm - N/A   Overcast